STARLINK-11604, 63133

Orbit data source: Space-Track

STARLINK-11604, 63133 is a payload satellite owned by SpaceX/Seattle (US) in LEO that was launched on Mon, 03 Mar 2025 UTC via an FALCON 9 launch vehicle from the Air Force Eastern Test Range (AFETR). Payload-class satellites include a variety of spacecraft equipped with specific instruments for various scientific and technological missions. These include communications satellites like Starlink; space stations such as the ISS; scientific satellites like the Hubble; Earth observation satellites from companies like Planet Labs, Umbra, and HawkEye 360; GPS; miniature CubeSats for education and research; and military/defense satellites.

Loading next visibility...
Identifier
63133, 2025-043B
Orbit
LEO
Country
Flag of USUS
Related business
Manufacturer
SpaceX/Seattle
Mission
Operational Commercial Communications
Bus & Motor
STARLINK V2MD, Unknown motor
Mass
960 kg wet, ~910 kg dry
Launch date (UTC)
2025-03-03 (11 months ago)
Launch vehicle
FALCON 9
Launch site
Air Force Eastern Test Range (AFETR)
Object type
Payload
Rocket body
Debris
Shape & HBR
Box + 2 Pan, 18.1 m
Radar Cross Section
36.964 m², Large (>1 m²)

Expand to show TLE details & history
Last TLE update: 6 hours ago

TLE from 6 hours ago
0 STARLINK-11604
1 63133U 25043B   26037.12747265  .00481540  00000-0  35107-2 0  9992
2 63133  43.0006  81.3738 0003187 244.6558 115.3980 15.71060315 54380
Epoch: 2026-02-06T03:03Z
TLE epoch observation values (Epoch: 2026-02-06T03:03:33.636Z)
Latitude
-0.00003°
Longitude
-100.78619°
Altitude
356.558 km
Speed
7.697 km/s
True Right ascension
05h 25m 29s
True Declination
0° 00' 00"
Sunlit
Object was in full shadow at epoch
Visualization orbit readout
Latitude
Unknown
Longitude
Unknown
Altitude
Unknown
Speed
Unknown
Apparent Right ascension
Unknown
Apparent Declination
Unknown
Sunlit
N/A
Visualization observer readout
Local Sidereal Time
11:37:01
Azimuth
Unknown
Elevation
Unknown
Doppler factor
Unknown
Orbital elements
Apogee altitude
359.994 km
Perigee altitude
355.7 km
Semi-major axis
6,735.984 km
Eccentricity
0.00032
Inclination
43.0006°
RAAN
81.3738°
Arg. of periapsis
244.6558°
True anomaly
115.43099°
Mean anomaly
115.398°
Eccentric anomaly
115.41449°
Mean motion
3.92592 °/min
Orbital period
91.7 mins
BSTAR
0.0035107
Loading maneuver chart data...
Computing Atmospheric mass density...
Loading historical data...
Loading historical data...
Loading historical data...
Loading historical data...
Loading historical data...
Loading historical data...
Loading historical data...

Documentation

Showing up to 5 results
|